Le nostre stazioni meteo in Italia

Pubblicità
Il mio iltempo24.it
Kleine Brogel, Belgio (6479): Temperatura & dewpoint: 10.12.2017 17:00:00 - 16.12.2017 17:00:00 (CET)Kleine Brogel, Belgio (6479): velocità del vento & gusts: 10.12.2017 17:00:00 - 16.12.2017 17:00:00 (CET)Kleine Brogel, Belgio (6479): direzione del vento: 10.12.2017 17:00:00 - 16.12.2017 17:00:00 (CET)Kleine Brogel, Belgio (6479): reduced air pressure: 10.12.2017 17:00:00 - 16.12.2017 17:00:00 (CET)Kleine Brogel, Belgio (6479): visibility: 10.12.2017 17:00:00 - 16.12.2017 17:00:00 (CET)
Data & Tempo tt [°C] td [°C] ff [km/h] ff [kn] fx [km/h] fx [kn] dd ppp [hPa] vv [km]
16.12.2017 17:00:00 2,7 1,8 11 6 25 14 O 1015,7 20
16.12.2017 16:00:00 3,6 2,8 11 6 - - O 1014,7 20
16.12.2017 15:00:00 3,9 2,7 11 6 29 16 O 1014,0 20
16.12.2017 14:00:00 4,5 2,4 14 8 25 14 OSO 1013,6 20
16.12.2017 13:00:00 4,8 2,3 14 8 - - O 1013,2 20
16.12.2017 12:00:00 3,9 2,1 11 6 22 12 O 1013,1 20
16.12.2017 11:00:00 2,2 1,3 11 6 14 8 O 1012,6 18
16.12.2017 10:00:00 0,8 0,5 7 4 - - OSO 1011,7 6
16.12.2017 09:00:00 0,2 0,0 7 4 11 6 O 1010,7 5
16.12.2017 08:00:00 -0,1 -0,3 7 4 11 6 OSO 1009,7 3,6
16.12.2017 07:00:00 0,3 0,2 7 4 - - O 1008,7 1,7
16.12.2017 06:00:00 1,0 0,7 7 4 11 6 O 1007,8 2,2
16.12.2017 05:00:00 1,4 1,2 7 4 11 6 O 1007,2 2,0
16.12.2017 04:00:00 0,8 0,8 4 2 - - N 1006,7 2,0
16.12.2017 03:00:00 0,8 0,5 4 2 7 4 N 1006,1 1,4
16.12.2017 02:00:00 2,2 2,0 4 2 7 4 N 1005,2 6
16.12.2017 01:00:00 2,3 2,0 4 2 - - N 1004,6 5
16.12.2017 00:00:00 2,3 2,0 4 2 4 2 N 1004,0 5
15.12.2017 23:00:00 2,2 1,9 4 2 7 4 N 1003,0 6
15.12.2017 22:00:00 2,2 1,8 4 2 - - N 1002,3 5
15.12.2017 21:00:00 1,7 1,6 4 2 4 2 N 1001,5 6
15.12.2017 20:00:00 1,0 0,9 4 2 4 2 N 1000,5 5
15.12.2017 19:00:00 1,3 1,1 4 2 - - N 999,3 13
15.12.2017 18:00:00 2,2 1,0 4 2 11 6 N 998,6 19
15.12.2017 17:00:00 3,2 2,0 4 2 4 2 N 997,8 19
15.12.2017 16:00:00 3,9 2,0 4 2 - - N 997,3 20
15.12.2017 15:00:00 3,7 2,0 4 2 18 10 N 996,5 20
15.12.2017 14:00:00 4,0 1,5 11 6 22 12 SSO 996,3 20
15.12.2017 13:00:00 3,7 2,2 11 6 - - SSO 996,1 20
15.12.2017 12:00:00 3,7 2,6 7 4 18 10 SSO 995,8 15
15.12.2017 11:00:00 3,5 2,6 11 6 18 10 SO 995,1 8
15.12.2017 10:00:00 3,2 2,6 7 4 - - SSO 994,2 12
15.12.2017 09:00:00 2,9 2,4 7 4 14 8 SO 993,9 6
15.12.2017 08:00:00 2,7 2,3 7 4 18 10 SSO 993,5 12
15.12.2017 07:00:00 2,5 1,9 11 6 - - SO 993,2 12
15.12.2017 06:00:00 2,7 1,6 14 8 29 16 SSO 993,0 15
15.12.2017 05:00:00 2,3 1,3 22 12 40 21 SO 992,9 19
15.12.2017 04:00:00 1,7 0,8 7 4 - - SSO 992,5 17
15.12.2017 03:00:00 2,3 1,3 14 8 22 12 SO 992,2 18
15.12.2017 02:00:00 2,0 1,0 11 6 22 12 SO 991,3 20
15.12.2017 01:00:00 2,2 1,2 14 8 - - OSO 991,2 20
15.12.2017 00:00:00 2,0 1,0 14 8 25 14 OSO 991,0 20
14.12.2017 23:00:00 1,6 0,9 11 6 18 10 SO 990,7 20
14.12.2017 22:00:00 1,6 0,8 7 4 - - SO 990,8 20
14.12.2017 21:00:00 2,6 1,6 14 8 22 12 SSO 990,7 20
14.12.2017 20:00:00 3,2 2,1 11 6 25 14 SO 991,1 20
14.12.2017 19:00:00 2,9 2,2 7 4 - - SSO 991,4 18
14.12.2017 18:00:00 2,9 2,0 18 10 32 18 SO 992,1 20
14.12.2017 17:00:00 3,0 1,1 18 10 40 21 SO 992,7 20
14.12.2017 16:00:00 4,0 1,5 22 12 - - SO 993,1 20
14.12.2017 15:00:00 4,0 1,7 22 12 43 23 SO 993,4 20
14.12.2017 14:00:00 3,9 1,4 29 16 50 27 SO 993,9 20
14.12.2017 13:00:00 4,4 1,8 29 16 - - SO 994,3 15
14.12.2017 12:00:00 4,0 1,8 25 14 47 25 SO 994,4 15
14.12.2017 11:00:00 4,0 1,6 29 16 58 31 SO 994,8 15
14.12.2017 10:00:00 4,0 1,4 25 14 - - SO 994,1 15
14.12.2017 09:00:00 3,2 0,5 18 10 36 19 SO 994,0 15
14.12.2017 08:00:00 3,3 0,6 29 16 47 25 OSO 994,3 12
14.12.2017 07:00:00 2,9 0,8 29 16 - - OSO 993,7 12
14.12.2017 06:00:00 1,1 0,7 29 16 58 31 O 992,5 2,5
14.12.2017 05:00:00 1,7 1,0 36 19 58 31 OSO 990,8 7
14.12.2017 04:00:00 0,4 0,3 7 4 - - OSO 990,3 20
14.12.2017 03:00:00 0,5 0,4 22 12 40 21 OSO 990,4 4,7
14.12.2017 02:00:00 4,0 2,0 11 6 29 16 SSO 989,9 20
14.12.2017 01:00:00 4,2 2,1 22 12 - - OSO 990,5 20
14.12.2017 00:00:00 4,8 2,5 18 10 43 23 O 990,5 20
13.12.2017 23:00:00 5,3 3,8 25 14 43 23 OSO 990,1 20
13.12.2017 22:00:00 5,0 3,7 22 12 - - OSO 988,8 20
13.12.2017 21:00:00 6,6 6,4 18 10 32 18 SSO 988,2 9
13.12.2017 20:00:00 6,2 5,8 22 12 40 21 SSO 990,4 7
13.12.2017 19:00:00 - - - - - - - - -
13.12.2017 18:00:00 - - - - - - - - -
13.12.2017 17:00:00 - - - - - - - - -
13.12.2017 16:00:00 4,5 3,9 16 9 - - SSO 998,2 5
13.12.2017 15:00:00 4,5 3,6 18 10 43 23 SSO 998,9 10
13.12.2017 14:00:00 4,4 3,4 29 16 50 27 SO 999,7 7
13.12.2017 13:00:00 4,4 3,0 29 16 - - SSO 1000,0 4,5
13.12.2017 12:00:00 3,5 2,8 25 14 50 27 SSO 1001,1 3,0
13.12.2017 11:00:00 3,3 2,4 22 12 43 23 SSO 1002,6 3,5
13.12.2017 10:00:00 3,4 2,3 22 12 - - SSO 1003,7 4,5
13.12.2017 09:00:00 3,2 1,9 18 10 40 21 SSO 1005,0 4,5
13.12.2017 08:00:00 3,7 1,4 18 10 36 19 SSO 1006,0 15
13.12.2017 07:00:00 3,2 0,9 14 8 - - SSO 1007,2 15
13.12.2017 06:00:00 2,5 0,6 14 8 29 16 SSO 1008,3 15
13.12.2017 05:00:00 1,8 0,3 14 8 25 14 SSO 1009,7 19
13.12.2017 04:00:00 1,5 -0,1 15 8 - - SSO 1011,0 10
13.12.2017 03:00:00 1,2 -0,3 11 6 25 14 S 1012,0 12
13.12.2017 02:00:00 1,0 -0,3 11 6 22 12 S 1012,5 20
13.12.2017 01:00:00 0,6 -0,3 11 6 - - SSO 1013,5 17
13.12.2017 00:00:00 0,4 -0,5 7 4 18 10 SSO 1014,1 12
12.12.2017 23:00:00 0,6 -0,2 11 6 22 12 SSO 1014,2 11
12.12.2017 22:00:00 0,6 -0,1 11 6 - - SSO 1014,2 9
12.12.2017 21:00:00 1,0 0,2 7 4 14 8 SSO 1014,2 7
12.12.2017 20:00:00 1,5 0,6 7 4 14 8 SSO 1014,0 9
12.12.2017 19:00:00 1,6 0,7 11 6 - - SO 1013,7 9
12.12.2017 18:00:00 1,6 1,0 11 6 18 10 SO 1013,1 7
12.12.2017 17:00:00 1,7 1,0 11 6 29 16 OSO 1012,3 3,7
12.12.2017 16:00:00 1,2 0,9 11 6 - - SO 1011,3 3,7
12.12.2017 15:00:00 1,0 0,6 18 10 29 16 SO 1010,6 2,0
12.12.2017 14:00:00 1,7 0,6 18 10 29 16 OSO 1010,0 7
12.12.2017 13:00:00 1,7 0,6 14 8 - - SO 1009,2 15
12.12.2017 12:00:00 1,7 0,7 18 10 29 16 OSO 1008,3 15
12.12.2017 11:00:00 1,5 0,7 11 6 29 16 O 1007,7 10
12.12.2017 10:00:00 1,1 0,6 18 10 - - OSO 1006,5 7
12.12.2017 09:00:00 1,2 0,6 14 8 32 18 OSO 1005,1 7
12.12.2017 08:00:00 0,8 0,5 18 10 32 18 OSO 1003,3 8
12.12.2017 07:00:00 0,8 0,4 18 10 - - OSO 1001,8 4,0
12.12.2017 06:00:00 1,1 0,4 18 10 29 16 O 1000,5 15
12.12.2017 05:00:00 1,0 0,1 14 8 25 14 OSO 998,5 15
12.12.2017 04:00:00 0,8 0,0 14 8 - - OSO 996,3 15
12.12.2017 03:00:00 0,9 0,2 14 8 25 14 O 994,4 15
12.12.2017 02:00:00 0,8 0,0 11 6 25 14 ONO 992,0 20
12.12.2017 01:00:00 0,6 0,0 11 6 - - ONO 989,7 15
12.12.2017 00:00:00 0,3 -0,3 11 6 22 12 ONO 987,3 14
11.12.2017 23:00:00 0,0 -0,3 11 6 22 12 NNO 985,0 9
11.12.2017 22:00:00 -0,2 -0,4 11 6 - - N 982,8 3,1
11.12.2017 21:00:00 0,0 0,0 11 6 22 12 NNO 981,0 3,2
11.12.2017 20:00:00 0,5 0,4 7 4 14 8 NO 979,3 2,3
11.12.2017 19:00:00 0,5 0,4 7 4 - - NNO 977,8 1,6
11.12.2017 18:00:00 0,6 0,6 4 2 14 8 N 976,7 1,6
11.12.2017 17:00:00 0,6 0,6 7 4 22 12 ENE 976,3 2,3
11.12.2017 16:00:00 0,6 0,4 14 8 - - ENE 975,8 2,9
11.12.2017 15:00:00 0,5 0,2 22 12 32 18 E 976,0 4,1
11.12.2017 14:00:00 0,3 0,1 14 8 43 23 E 976,8 4,0
11.12.2017 13:00:00 0,2 0,1 25 14 - - ENE 977,5 4,2
11.12.2017 12:00:00 0,1 0,1 32 18 43 23 NE 979,1 2,9
11.12.2017 11:00:00 -0,1 -0,1 22 12 32 18 ENE 980,5 0,5
11.12.2017 10:00:00 -0,3 -0,3 18 10 - - ENE 981,4 0,8
11.12.2017 09:00:00 -0,3 -0,4 18 10 32 18 ENE 982,1 0,8
11.12.2017 08:00:00 0,4 -1,4 18 10 29 16 E 982,1 10
11.12.2017 07:00:00 0,4 -0,3 18 10 - - E 982,6 8
11.12.2017 06:00:00 0,6 0,0 11 6 18 10 ENE 983,4 7
11.12.2017 05:00:00 0,0 0,0 7 4 14 8 E 984,4 4,1
11.12.2017 04:00:00 -0,7 -0,9 4 2 - - N 985,5 3,5
11.12.2017 03:00:00 -1,2 -1,2 4 2 11 6 N 984,3 4,0
11.12.2017 02:00:00 1,5 0,5 4 2 22 12 - 984,6 10
11.12.2017 01:00:00 2,9 1,3 14 8 - - OSO 984,1 20
11.12.2017 00:00:00 3,0 1,5 14 8 36 19 OSO 982,3 20
10.12.2017 23:00:00 3,2 1,2 25 14 47 25 OSO 981,3 18
10.12.2017 22:00:00 3,5 1,1 31 17 - - O 979,4 10
10.12.2017 21:00:00 4,1 0,6 39 21 72 39 OSO 977,1 10
10.12.2017 20:00:00 5,9 3,9 32 18 61 33 OSO 975,2 4,4
10.12.2017 19:00:00 5,7 4,4 34 18 - - SO 974,0 10
10.12.2017 18:00:00 6,5 3,4 47 25 76 41 SO 973,4 17
10.12.2017 17:00:00 5,6 3,2 25 14 43 23 SSO 973,6 11

tt = Temperatura
td = dewpoint
ff = velocità del vento
fx = gusts
dd = direzione del vento
ppp = reduced air pressure
vv = visibility

Stazioni seguenti

WeatherPro
AMSI
MeteoEarth